Location: Unspecified
(50.2333°N, 0.0000°E)
Time: 05:18:16
(UTC+00:00)

GB3 - Visible Passes

Search period start: 04 April 2026 00:00
Search period end: 14 April 2026 00:00
Orbit: 422 x 1495 km, 63.3° (Epoch: 29 March)

Date Brightness Start Highest point End Pass type
(mag) Time Alt. Az. Time Alt. Az. Time Alt. Az.
4 Apr 8.3 00:07:17 10° NNW 00:08:31 13° N 00:08:31 13° N visible
4 Apr 7.8 20:48:03 10° W 20:52:35 28° NNW 20:56:14 10° NNE visible
4 Apr 8.3 22:39:10 10° NW 22:41:16 13° N 22:43:12 10° NNE visible
5 Apr 8.3 00:27:36 10° NNW 00:28:08 12° NNW 00:28:08 12° NNW visible
5 Apr 6.4 19:19:19 10° SW 19:25:13 66° NW 19:29:39 10° NE visible
5 Apr 8.2 21:09:35 10° WNW 21:13:15 20° NNW 21:16:20 10° NNE visible
5 Apr 8.2 23:00:18 10° NNW 23:02:09 13° N 23:03:28 11° NNE visible
6 Apr 7.2 19:40:18 10° WSW 19:45:39 42° NW 19:49:47 10° NNE visible
6 Apr 8.2 21:31:12 10° NW 21:34:00 16° NNW 21:36:29 10° NNE visible
6 Apr 8.1 23:20:54 10° NNW 23:23:02 14° NNE 23:23:03 14° NNE visible
7 Apr 7.8 20:01:35 10° W 20:06:10 28° NNW 20:09:51 10° NNE visible
7 Apr 8.2 21:52:43 10° NW 21:54:51 13° N 21:56:47 10° NNE visible
7 Apr 8.1 23:41:12 10° NNW 23:42:36 15° N 23:42:36 15° N visible
8 Apr 8.1 20:23:06 10° WNW 20:26:49 20° NNW 20:29:56 10° NNE visible
8 Apr 8.1 22:13:50 10° NNW 22:15:42 13° N 22:17:27 10° NNE visible
9 Apr 8.1 00:01:24 10° NNW 00:02:10 14° NNW 00:02:10 14° NNW visible
9 Apr 8.1 20:44:42 10° NW 20:47:33 16° NNW 20:50:03 10° NNE visible
9 Apr 7.9 22:34:27 10° NNW 22:36:34 14° N 22:37:28 13° NNE visible
10 Apr 8.2 00:21:34 10° NW 00:21:43 11° NNW 00:21:43 11° NNW visible
10 Apr 7.8 19:15:04 10° W 19:19:42 29° NNW 19:23:24 10° NNE visible
10 Apr 8.1 21:06:12 10° NW 21:08:22 13° N 21:10:20 10° NNE visible
10 Apr 7.7 22:54:45 10° NNW 22:57:00 17° NNE 22:57:00 17° NNE visible
11 Apr 8.0 19:36:33 10° WNW 19:40:18 21° NNW 19:43:28 10° NNE visible
11 Apr 8.0 21:27:19 10° NNW 21:29:12 13° N 21:30:57 10° NNE visible
11 Apr 7.7 23:14:55 10° NNW 23:16:33 19° N 23:16:33 19° N visible
12 Apr 8.0 19:58:08 10° NW 20:01:02 16° NNW 20:03:34 10° NNE visible
12 Apr 7.8 21:47:57 10° NNW 21:50:02 14° N 21:51:50 10° NE visible
12 Apr 7.8 23:35:05 10° NW 23:36:05 17° NNW 23:36:05 17° NNW visible
13 Apr 8.0 20:19:37 10° NW 20:21:49 13° N 20:23:48 10° NNE visible
13 Apr 7.4 22:08:14 10° NNW 22:10:48 17° NNE 22:11:23 16° NNE visible
